Other Public Products
Issued by NWS Grand Forks, ND

Home | Current Version | Previous Version | Graphics & Text | Print | Product List | Glossary On
Versions: 1 2 3 4 5 6 7 8 9 10 11 12 13 14 15 16 17 18 19 20 21 22 23 24 25 26 27 28 29 30 31 32 33 34 35 36 37 38 39 40 41 42 43 44 45 46 47 48 49 50
000
FPUS83 KFGF 011031
OPUFGF
PRAIRIE TO PINES WEATHER ROUNDUP
NATIONAL WEATHER SERVICE EASTERN NORTH DAKOTA/GRAND FORKS ND
500 AM CDT TUE SEP 01 2015

 **SATELLITE DATA USED TO AUGMENT SKY COVER AT AUTOMATED STATIONS**
 *****  WEATHER ACROSS EASTERN NORTH DAKOTA  *****

CITY           SKY/WX    TMP DP  RH WIND       PRES   REMARKS
GRAND FORKS    PTCLDY    50  48  93 S5        29.85S
GRAND FORKS AF PTCLDY    52  49  88 SW6       29.86R
GRAND CITY NWS   N/A     54 N/A N/A W3          N/A
BUXTON         NOT AVBL
DEVILS LAKE    CLEAR     57  45  62 CALM      29.86S
FARGO          FAIR      58  57  97 CALM      29.88R
WAHPETON ARPT  CLOUDY    59  55  88 CALM      29.90R
$$

 *****  WEATHER ACROSS CENTRAL AND WESTERN NORTH DAKOTA  *****

CITY           SKY/WX    TMP DP  RH WIND       PRES   REMARKS
JAMESTOWN      MOCLDY    55  52  89 CALM      29.88F
BISMARCK       CLEAR     54  51  90 E8        29.87F
MINOT          CLEAR     57  47  69 S3        29.83S
MINOT AFB      CLEAR     53  48  82 CALM      29.82S
GARRISON         N/A     53  47  79 CALM      29.86R
WILLISTON      CLEAR     50  44  80 CALM      29.83F
DICKINSON      CLEAR     55  47  74 S10       29.86S
HETTINGER      CLEAR     56  51  84 SE6       29.91R
$$

 *****  OTHER OBSERVATIONS NORTHEAST NORTH DAKOTA  *****

CITY           SKY/WX    TMP DP  RH WIND       PRES   REMARKS
WALHALLA       FAIR      61  48  63 MISG      29.85R
LANGDON        FAIR      50  48  93 S7        29.87S
CAVALIER       FAIR      54  48  82 SW8       29.84R
GRAFTON        FAIR      50  50 100 SW8       29.86R
CANDO          FAIR      50  46  87 CALM      29.87R
FORT TOTTEN    NOT AVBL
ROLLA          FAIR      48  45  87 SW6       29.86F
RUGBY          FAIR      52  46  82 CALM      29.85F
 ***** THE ABOVE OBSERVATIONS ARE NON NWS ARE NOT QUALITY
        CONTROLLED AND MAY MIS-REPORT RAIN FOR SNOW...
$$

 *****  OTHER OBSERVATIONS SOUTHEAST NORTH DAKOTA *****

CITY           SKY/WX    TMP DP  RH WIND       PRES   REMARKS
COOPERSTOWN    NOT AVBL
VALLEY CITY    FAIR      55  55 100 CALM      29.89S
OAKES            N/A     57  57 100 NE3       29.90S
GWINNER          N/A     61  61 100 SW3       29.91S
SHEYENNE NWR     N/A     54  54  99 S2        29.95S
BUFFALO        NOT AVBL
WYNDMERE         N/A     59  57  94 CALM        N/A
 ***** THE ABOVE OBSERVATIONS ARE NON NWS ARE NOT QUALITY
       CONTROLLED AND MAY MIS-REPORT RAIN FOR SNOW...
$$

  *****  WEATHER ACROSS NORTHERN MINNESOTA  *****

CITY           SKY/WX    TMP DP  RH WIND       PRES   REMARKS
FLAG ISLAND    PTCLDY    61  54  77 SW12      29.83R
WARROAD        PTCLDY    55  52  88 S6        29.86S
ROSEAU         PTCLDY    52  46  82 S5        29.86R
HALLOCK        PTCLDY    48  46  93 CALM      29.84S
THF RVR FALLS  PTCLDY   N/A N/A N/A CALM      29.88R
HALSTAD        NOT AVBL
FOSSTON        PTCLDY    55  54  94 S5        29.90S FOG
BAUDETTE       MOCLDY    54  51  90 CALM      29.86S
WASKISH        FOG       52  50  93 CALM      29.89R VSB 1/4
CROOKSTON      PTCLDY    54  54 100 SE7       29.88S
$$
  *****  WEATHER ACROSS CENTRAL AND WEST MINNESOTA  *****

CITY           SKY/WX    TMP DP  RH WIND       PRES   REMARKS
BEMIDJI        FOG       55  55 100 CALM      29.90S VSB<1/4
PARK RAPIDS    FOG       58  56  93 CALM      29.91S VSB 1/4
WADENA         FOG       61  61 100 CALM      29.91R VSB 1/2
DETROIT LAKES  FOG       59  59 100 CALM      29.93R VSB 1/4
MOORHEAD       MOCLDY    57  55  94 CALM      29.89S
FERGUS FALLS   CLOUDY    64  64 100 NE3       29.90R
ELBOW LAKE     FAIR      66  65  97 CALM      29.90S
MORRIS MN      CLOUDY    66  64  94 CALM      29.90R FOG
STAPLES        FOG       61  61 100 CALM      29.92R VSB 1/2
WHEATON        CLOUDY    61  59  94 CALM      29.92S
$$
  *****  WEATHER ELSEWHERE ACROSS MINNESOTA  *****

CITY           SKY/WX    TMP DP  RH WIND       PRES   REMARKS
DULUTH         CLOUDY    70  67  90 W6        29.89S FOG
INTRNTL FALLS  FOG       53  53 100 SW3       29.87S VSB 1/2
ELY            FOG       66  64  94 CALM      29.90R VSB 1/2
CLOQUET        CLOUDY    70  66  88 CALM      29.90R FOG
BRAINERD       MOCLDY    67  65  93 NW3       29.90S FOG
HIBBING        FOG       62  61  96 CALM      29.91R VSB 1/2
ALEXANDRIA     MOCLDY    66  66 100 NE3       29.92S FOG
SAINT CLOUD    CLOUDY    69  67  93 CALM      29.89R
MINNEAPOLIS    PTCLDY    73  66  78 S7        29.90F
$$

  *****  WEATHER ACROSS SOUTH DAKOTA  *****

CITY           SKY/WX    TMP DP  RH WIND       PRES   REMARKS
SIOUX FALLS    CLOUDY    69  66  90 E3        29.89S
BROOKINGS      CLOUDY    70  66  88 SE3       29.91S
WATERTOWN      CLOUDY    67  64  90 E3        29.91S
HURON          CLOUDY    63  62  97 NW5       29.87S
SISSETON         N/A     61  60  97 S3        29.89S
ABERDEEN       CLOUDY    60  58  92 NE7       29.88S
MITCHELL       CLOUDY    66  65  96 NW5       29.87F
PIERRE         CLEAR     59  58  96 E3        29.87F
MOBRIDGE       PTCLDY    59  58  96 SE6       29.86F
RAPID CITY     CLEAR     55  54  96 CALM      29.90R
$$

  *****  SOME WEATHER IN NEARBY STATES *****

CITY           SKY/WX    TMP DP  RH WIND       PRES   REMARKS
GLASGOW MT     CLEAR     53  44  71 E9        29.80S
GREAT FALLS MT FAIR      62  39  42 S14       29.83F
CHEYENNE WY    CLEAR     55  46  71 SW3       30.13S
SCOTTSBLUFF NE PTCLDY    58  54  86 CALM      30.00R
OMAHA NE       CLEAR     70  68  93 S8        29.92F
DES MOINES IA  CLEAR     71  67  87 S8        29.96R
DAVENPORT IA   PTCLDY    72  70  93 S6        30.01R FOG
CHICAGO IL     CLEAR     70  68  93 CALM      30.03S
EAU CLAIRE WI  FOG       68  67  96 CALM      29.94S VSB 1
LA CROSSE WI   CLEAR     71  69  93 SE6       29.95R FOG
$$

  *****  SOME NATIONAL WEATHER *****

CITY           SKY/WX    TMP DP  RH WIND       PRES   REMARKS
LA GUARDIA NY  PTCLDY    77  67  71 CALM      30.00R
RALEIGH NC     FOG       70  66  88 CALM      30.09R VSB 1/2
ATLANTA GA     PTCLDY    70  66  87 CALM      30.12R
NEW ORLEANS LA MOCLDY    78  70  76 CALM      30.03S
OKLAHOMA CITY  CLEAR     69  63  81 S6        30.02R
ALBUQUERQUE NM CLOUDY    70  48  45 SE5       30.15F
SALT LAKE CITY MOCLDY    74  46  36 SE13      29.95S
LOS ANGELES CA MOCLDY    70  62  76 SE7       29.90S
BOISE ID       FAIR      60  39  45 CALM      29.90S
SEATTLE WA     CLOUDY    63  53  70 S15       29.90F
$$

*** WEATHER ACROSS MANITOBA...SASKATCHEWAN AND ONTARIO ***
                ***ONTARIO***

CITY           SKY/WX    TMP DP  RH WIND       PRES   REMARKS
GERALDTON      CLOUDY    64  63  94 SW6       29.84R FOG
THUNDER BAY    LGT RAIN  63  61  94 VRB2      29.85F
SIOUX LOOKOUT  PTCLDY    61  61 100 SW5       29.82S
TORONTO        PTCLDY    64  63  94 W5        30.07R FOG
BIG TROUT LK   CLOUDY    61  59  94 W10G18    29.63R
PICKLE LAKE    NOT AVBL
DRYDEN         CLEAR     61  59  94 S8        29.83S
KENORA         PTCLDY    57  54  88 SW7       29.83
$$
                *** MANITOBA***

CITY           SKY/WX    TMP DP  RH WIND       PRES   REMARKS
BRANDON        PTCLDY    50  46  87 SW7       29.81S
DAUPHIN        CLEAR     52  46  82 SW8       29.73S
ISLAND LAKE    CLEAR     59  55  88 SW7       29.64R
PILOT MOUND      N/A     46  43  87 S5          N/A
THE PAS        PTCLDY    54  52  94 CALM      29.64S
THOMPSON       DRZL/FOG  54  54 100 VRB2      29.63R VSB 1/4
WINNIPEG       PTCLDY    55  46  71 SW7       29.80S
LYNN LAKE      FOG       46  45  93 MISG      29.61F VSB 1/4
CHURCHILL      CLOUDY    45  45 100 E5        29.67R
$$
                ***SASKATCHEWAN***

CITY           SKY/WX    TMP DP  RH WIND       PRES   REMARKS
ESTEVAN        PTCLDY    50  41  71 SW7       29.82R
KINDERSLEY     MOCLDY    50  41  71 S12       29.63F
LLOYDMINSTER   CLOUDY    55  43  62 SE8       29.54F
PRINCE ALBERT  CLOUDY    46  45  93 E5        29.63F
REGINA         PTCLDY    48  45  87 S9        29.76R
YORKTON        CLEAR     52  46  82 S9        29.73R


USA.gov is the U.S. government's official web portal to all federal, state and local government web resources and services.